Location: Township of Marena
(38.1747°N, 99.6798°W)
Time: 03:44:44
(UTC+00:00)

CZ-2C R/B - Pass Details

Date: 26 October 2020
Orbit: 667 x 785 km, 98.2° (Epoch: 24 November)

Event Time Altitude Azimuth Distance (km) Brightness Sun altitude
Rises 10:38:31 0° 12° (NNE) 3,206 5.9 -28.2°
Reaches altitude 10° 10:40:51 10° 11° (NNE) 2,261 5.1 -27.7°
Enters shadow 10:44:44 55° 7° (N) 873 2.7 -27.0°
